RH
16 21 19 17 18 17 18 16 16 13 11 13 14 12 10 10 9 10 13 14 20 26 33 48 60 67 72 79 87 98 95 86 94 99 99 100 100 100 94 88 85 80 75 70
17 28 16 14 15 19 20 20 18 15 12 15 14 13 10 9 8 9 11 12 17 21 30 47 63 70 78 84 90 100 97 100 99 100 100 99 99 99 82 78 76 80 76 71
24 22 20 18 19 22 23 24 21 20 15 14 16 17 14 11 10 9 10 12 13 18 26 44 63 71 82 84 91 100 88 100 99 98 100 100 100 96 86 83 78 69 61 60
29 23 24 26 24 21 31 20 19 19 20 24 15 22 14 10 9 8 12 13 14 16 24 37 60 71 75 81 90 93 85 99 100 99 100 99 97 95 80 75 76 74 71 72
46 28 27 25 24 21 27 19 18 18 22 24 20 22 17 12 12 11 11 11 12 17 21 34 52 66 71 78 88 90 81 99 100 98 97 98 100 90 82 82 80 72 68 65
31 32 27 26 19 20 21 20 21 20 22 32 23 22 20 14 13 12 11 11 12 16 21 32 46 59 64 72 85 93 91 97 96 100 99 93 98 96 93 93 77 56 43 48
48 31 29 28 25 21 23 24 34 37 37 38 20 23 21 13 12 12 13 12 12 15 23 29 42 54 60 70 86 90 96 100 97 98 99 97 97 95 83 81 61 47 38 49
66 59 26 28 28 28 26 26 32 43 44 35 20 26 19 13 12 12 13 13 14 18 22 26 36 49 57 66 79 83 92 97 99 98 100 99 99 96 98 83 64 50 47 58
56 42 25 26 26 30 36 33 22 42 36 39 31 22 18 15 14 13 14 15 14 15 18 26 32 48 54 63 73 80 82 86 98 98 97 98 100 99 98 97 75 62 62 66
32 46 22 22 25 30 32 28 42 38 54 51 32 26 25 19 17 14 16 16 17 17 19 25 31 44 52 60 70 79 77 75 84 97 98 98 99 98 100 97 90 81 68 68
27 34 54 18 25 31 34 34 44 41 37 48 50 35 19 18 17 16 16 17 18 21 24 25 32 38 49 57 67 78 80 68 72 83 93 97 98 97 99 96 92 90 96 92
28 36 39 31 18 19 23 27 31 51 50 39 39 42 17 19 23 21 19 17 17 18 21 30 32 38 46 55 64 73 79 70 67 73 81 89 91 94 94 92 93 88 90 91
34 33 40 64 34 24 25 23 24 27 30 50 75 38 17 19 17 18 18 18 17 16 18 24 35 40 44 51 58 64 76 74 69 68 77 85 89 89 89 90 91 92 91 94
40 46 44 45 37 34 30 28 24 28 43 37 36 32 24 21 19 19 18 18 18 18 17 17 25 36 42 46 52 60 68 79 77 70 72 81 89 86 89 90 91 94 93 93
38 52 48 45 44 36 39 38 34 35 34 43 36 33 24 21 19 17 18 19 20 19 19 17 17 23 35 43 48 54 61 73 79 77 73 75 83 86 89 89 90 91 92 91
32 40 38 43 34 34 33 29 30 30 30 30 28 28 20 20 20 21 20 20 20 20 20 19 20 19 21 36 46 51 57 64 76 81 79 77 80 85 90 90 91 90 90 91
43 42 34 49 36 40 49 33 28 25 23 25 31 26 20 21 22 23 24 23 20 21 22 24 26 24 22 21 35 47 54 60 68 77 79 81 82 86 87 88 91 91 90 92
47 42 42 53 49 60 30 20 22 25 22 23 26 22 23 24 26 26 33 38 39 37 36 35 33 31 28 28 28 32 46 57 64 70 74 76 81 84 86 88 90 91 92 90
40 46 50 58 44 30 22 20 21 24 24 28 28 26 27 29 30 30 38 41 42 40 39 39 40 45 46 41 34 33 37 45 57 67 69 69 74 79 83 88 91 91 92 94
39 44 52 54 59 49 25 23 22 23 33 30 30 30 29 28 34 30 36 39 42 43 42 44 52 55 56 57 57 42 35 36 46 56 66 67 69 76 81 85 90 93 94 96
61 64 69 60 57 37 36 26 30 45 44 36 34 35 38 40 36 38 36 35 40 42 43 46 58 66 80 84 79 68 59 47 42 45 55 65 69 74 79 77 87 93 97 99
63 79 77 64 79 69 24 26 41 50 42 43 43 43 47 48 45 41 35 37 43 43 42 48 61 81 95 86 93 88 75 69 59 54 58 68 70 74 80 84 89 95 93 92
74 42 49 42 40 35 45 54 53 54 51 52 52 49 53 54 56 54 50 46 48 48 54 64 68 86 96 99 98 100 97 98 88 80 77 79 82 89 94 97 100 100 100 100
34 41 53 72 42 43 60 58 58 58 58 59 58 58 60 63 62 61 60 64 62 60 69 82 82 98 99 99 100 100 100 100 98 100 100 100 100 100 100 100 99 100 100 100
32 44 32 36 38 31 40 56 69 63 62 64 67 67 67 68 67 68 66 73 75 74 82 92 80 94 98 98 100 100 100 98 100 100 100 100 100 100 100 100 100 100 100 100
31 47 45 55 64 61 51 63 79 66 70 73 74 72 74 75 74 76 76 87 94 96 99 100 100 97 98 99 99 100 98 100 100 100 100 100 100 100 100 100 99 100 100 99
Wind_Speed
25 16 22 26 26 24 22 23 18 12 3 8 14 17 18 17 21 15 19 17 17 18 16 18 18 16 14 13 12 14 16 17 16 15 16 19 34 38 39 39 40 39 38 41
21 25 24 24 22 21 25 23 21 17 9 6 17 17 16 17 17 23 19 20 19 18 17 19 19 18 16 14 14 15 16 17 15 17 19 21 37 40 46 46 45 43 39 37
23 21 26 24 20 22 22 23 21 19 15 7 16 20 21 19 24 21 22 16 16 17 19 21 21 20 17 16 16 16 20 19 18 16 20 26 32 45 46 44 43 37 38 42
18 27 22 24 26 21 21 19 22 18 15 14 17 15 16 9 14 18 18 18 18 17 18 22 23 23 21 18 17 18 20 21 23 24 25 30 37 50 47 45 46 42 40 41
16 15 21 21 23 18 21 18 20 17 13 17 21 11 13 19 17 14 14 20 22 18 19 22 25 23 21 19 20 19 23 22 23 28 26 29 35 45 47 45 45 47 46 43
22 22 12 18 18 17 18 17 13 12 13 15 18 16 14 14 15 16 11 10 13 18 18 21 23 22 22 20 21 20 23 25 26 31 32 29 35 42 45 46 44 46 44 47
23 27 20 23 12 12 19 13 9 10 11 12 14 13 15 5 1 6 6 10 13 14 17 21 25 27 25 25 23 22 24 26 27 32 35 31 32 41 47 47 47 48 50 48
11 14 21 16 15 14 17 18 9 14 11 12 18 7 11 12 9 7 5 7 10 12 16 22 26 27 27 27 25 24 25 25 28 30 35 34 34 34 40 51 53 53 56 55
5 12 16 16 18 13 13 18 19 9 14 5 8 10 4 8 7 8 2 8 14 17 16 21 25 28 28 28 28 26 25 25 28 31 32 35 35 33 35 38 57 53 55 55
10 15 13 23 25 25 17 12 9 8 6 12 11 13 7 10 10 8 4 1 2 5 10 19 24 28 29 27 27 26 26 26 27 28 31 32 33 35 34 33 47 56 57 55
15 14 7 11 19 22 17 19 13 14 15 4 3 5 6 7 3 10 8 4 7 3 4 15 21 25 28 28 28 28 28 28 29 29 29 30 33 36 34 34 35 43 44 50
17 5 12 10 21 18 20 20 20 8 11 11 10 4 5 9 6 11 9 4 1 2 2 6 15 22 27 30 29 30 29 31 33 31 32 34 32 32 35 40 41 43 43 43
8 8 11 4 7 9 16 18 19 16 13 10 3 2 8 4 3 5 9 19 11 9 2 2 10 19 26 29 30 31 31 33 32 32 34 36 38 39 39 40 43 41 44 43
7 9 11 8 4 3 13 11 18 13 10 13 13 17 12 12 6 9 14 15 16 19 13 5 8 14 21 27 30 30 31 32 32 34 36 37 40 42 41 40 39 42 41 43
3 8 9 11 8 5 5 5 8 12 12 10 12 10 10 9 10 12 15 17 17 17 17 17 10 13 17 23 27 30 31 32 33 33 36 40 41 39 36 39 42 42 43 43
5 8 6 11 11 11 12 11 12 13 12 14 14 16 16 19 13 14 19 20 21 20 18 17 18 17 18 20 25 27 29 33 33 38 42 38 37 40 40 41 41 42 44 46
6 6 10 11 9 8 10 14 15 14 14 15 15 7 1 4 7 11 17 20 22 21 19 16 16 17 16 19 21 25 28 28 32 35 36 36 39 41 42 40 39 42 44 42
9 8 7 7 3 10 9 4 6 9 14 6 8 5 5 6 10 15 10 15 18 19 20 21 18 17 12 13 18 23 25 28 31 32 33 34 38 42 40 39 42 42 42 43
14 12 7 7 10 13 18 6 6 9 11 5 4 5 9 12 13 0 11 11 14 16 16 18 19 17 16 14 14 16 22 26 30 33 35 34 36 38 38 40 42 41 39 40
16 14 10 6 11 11 13 5 6 4 8 9 4 6 8 12 7 4 17 18 17 20 18 19 21 18 14 13 12 13 17 23 29 33 34 31 32 38 38 38 37 36 35 36
11 11 14 12 8 6 7 7 3 10 2 7 7 10 12 10 12 20 22 21 18 17 18 19 20 19 17 17 16 15 14 19 24 25 27 28 31 34 35 33 32 32 32 35
11 9 7 8 5 14 9 6 7 8 4 9 10 12 14 16 18 18 20 20 18 18 17 17 17 19 20 21 16 13 10 13 20 21 24 24 24 25 28 28 38 42 40 37
6 10 8 11 8 6 8 9 3 7 8 11 13 15 16 16 18 18 18 16 14 14 14 15 16 16 19 20 18 13 14 16 15 16 22 26 30 30 29 32 32 32 31 31
8 12 6 3 8 7 9 2 10 10 10 12 13 14 15 16 16 16 15 14 15 14 15 13 11 14 16 16 14 14 11 11 8 13 17 21 25 28 27 27 26 27 28 28
2 6 8 9 12 9 11 12 9 11 11 12 13 13 14 15 16 17 14 13 14 14 15 15 13 14 16 13 12 12 13 12 8 9 12 15 18 20 21 22 19 18 18 15
7 4 4 2 12 9 10 16 12 13 15 15 16 16 16 16 16 15 13 13 12 13 14 14 13 11 12 13 11 8 9 13 9 3 5 7 11 14 15 16 17 12 11 7
Wind_Direction
210 220 223 226 222 238 252 261 250 249 211 216 246 252 251 249 256 230 243 243 227 228 222 213 208 205 199 200 196 196 214 198 200 191 189 190 169 173 169 167 162 160 165 179
228 224 232 234 236 230 243 252 259 263 256 212 262 260 257 253 253 254 252 252 221 225 216 204 205 201 200 201 195 187 197 202 196 188 188 194 180 172 164 163 166 170 181 177
233 231 231 241 230 236 237 240 248 253 274 208 259 267 261 251 253 251 251 250 257 219 215 201 203 201 201 200 197 187 196 191 183 181 187 191 187 172 175 181 179 168 180 188
242 235 240 223 234 226 239 231 248 260 263 257 248 273 262 275 219 226 233 236 232 233 214 204 203 202 201 200 196 193 191 191 183 178 185 188 185 181 182 181 179 184 188 192
236 239 247 229 230 229 244 251 259 253 248 257 252 253 264 261 239 230 236 235 227 216 215 205 202 201 199 196 193 193 191 192 191 185 189 188 183 183 183 186 188 190 193 195
276 279 251 256 261 223 242 243 250 245 244 244 241 244 251 252 212 222 225 225 218 200 208 205 200 196 195 195 196 193 189 196 198 188 189 193 194 183 193 196 197 199 199 196
260 263 251 269 254 214 227 208 213 213 223 237 235 223 235 210 136 252 245 233 222 200 208 203 196 194 192 194 197 194 193 192 199 194 194 188 201 202 196 198 196 195 194 198
233 245 235 243 230 232 214 219 220 219 221 232 213 227 233 237 243 201 222 246 205 201 212 209 202 198 195 194 197 195 196 197 201 206 200 200 200 205 208 204 200 200 199 202
248 234 249 238 251 264 229 228 237 316 273 261 202 218 129 174 221 219 266 246 234 227 211 211 203 201 200 197 198 199 198 198 201 203 203 205 200 204 207 208 209 205 207 207
245 283 240 235 204 212 237 233 247 240 248 237 250 256 218 172 216 198 219 101 58 266 220 205 204 202 203 201 201 202 201 203 205 206 205 203 206 209 208 209 209 215 216 220
238 270 271 214 211 208 213 229 231 223 238 239 240 255 357 141 158 273 102 101 67 55 216 208 209 205 205 203 200 201 203 201 206 206 208 207 209 208 208 210 215 213 214 219
196 262 284 222 202 230 228 217 215 235 241 248 247 271 248 78 24 358 353 341 31 71 38 209 212 208 206 205 204 205 205 204 205 208 208 210 211 213 216 212 214 215 217 221
336 231 238 252 220 243 228 235 231 233 248 233 280 207 213 234 307 338 319 321 322 319 140 215 204 206 207 209 210 210 209 211 207 208 212 212 211 211 215 216 215 220 219 218
279 274 271 279 15 304 222 226 220 231 238 255 253 264 270 278 295 300 293 294 299 303 311 271 224 217 214 214 215 216 216 214 211 210 213 215 216 215 213 216 215 218 220 219
292 281 290 280 301 314 290 263 243 240 242 260 267 269 268 290 301 294 297 298 294 289 289 291 283 237 227 223 220 220 221 221 214 215 215 217 220 219 216 216 217 218 221 223
290 271 278 277 273 278 267 247 239 247 259 264 264 264 269 265 274 273 282 287 290 294 293 293 300 279 242 231 227 223 221 221 219 218 221 219 220 219 218 218 219 220 222 223
283 266 258 267 252 276 276 253 250 251 245 243 246 276 353 295 318 315 310 305 297 284 292 308 304 302 273 250 234 229 226 221 219 223 224 223 221 222 222 220 219 221 222 223
250 245 262 274 265 251 244 241 312 266 256 246 276 290 8 315 315 295 8 353 338 325 314 306 309 301 302 279 260 242 232 225 223 223 222 221 223 222 222 222 221 222 221 222
218 240 239 233 245 262 278 258 247 256 253 55 318 333 356 347 313 77 38 3 345 341 335 324 309 311 298 297 285 256 240 232 227 225 223 220 220 221 220 221 221 221 220 224
210 219 235 214 242 255 254 11 77 260 234 49 10 13 353 334 299 282 345 335 331 328 328 333 340 327 317 303 293 273 250 243 237 236 232 231 224 219 218 219 220 219 220 222
192 200 221 230 245 264 116 285 38 234 98 28 359 8 355 336 329 316 316 318 313 319 329 334 341 343 337 325 314 293 277 255 248 244 240 235 230 226 224 219 215 215 209 211
176 187 202 229 245 247 269 268 276 45 2 9 1 6 349 335 321 315 315 315 318 318 323 339 345 349 345 344 333 319 299 257 242 232 235 236 231 229 223 218 212 213 216 215
207 198 199 194 217 135 103 71 56 26 8 4 359 356 352 339 337 330 330 324 337 344 349 352 353 352 350 356 348 323 286 281 262 238 223 211 211 213 215 217 226 224 219 216
221 210 222 29 239 161 102 171 55 15 6 359 355 352 354 348 346 342 340 342 340 346 351 356 347 349 346 355 356 344 329 303 295 272 249 235 228 229 226 222 217 217 216 214
232 309 233 230 212 265 92 52 33 1 11 1 357 355 354 353 354 352 349 347 351 352 357 355 345 343 343 350 358 357 345 331 300 249 226 210 203 201 197 197 195 203 212 218
247 341 265 31 33 353 17 10 12 2 6 1 356 354 356 356 352 352 353 349 348 351 354 359 351 350 346 348 354 11 359 348 325 243 191 187 186 173 166 163 157 147 147 165